,,PA_Meas_PMT16A,,PR_Meas_QMR101_102,,RH_Meas_QMH101,,SR_Meas_QMS101,,TA_Meas_QMH101,,GenWind,,GenWind,
time,status,PA,status,PR,status,RH,status,SR,status,TA,status,DirAvg,status,SpdAvg,
2010-07-27, 00:00:05,VALID,917.729,VALID,0,VALID,90.9702,VALID,0,VALID,19.4868,VALID,263,VALID,0.210547,
2010-07-27, 00:01:05,VALID,917.718,VALID,0,VALID,91.1913,VALID,0.107441,VALID,19.4478,VALID,263,VALID,0,
2010-07-27, 00:02:05,VALID,917.706,VALID,0,VALID,91.2447,VALID,0,VALID,19.4298,VALID,263,VALID,0,
2010-07-27, 00:03:05,VALID,917.714,VALID,0,VALID,91.4124,VALID,0,VALID,19.4103,VALID,263,VALID,0,
2010-07-27, 00:04:05,VALID,917.714,VALID,0,VALID,91.8622,VALID,0,VALID,19.4103,VALID,263,VALID,0.741016,
2010-07-27, 00:05:05,VALID,917.721,VALID,0,VALID,92.1214,VALID,0,VALID,19.4298,VALID,263,VALID,0.497656,
2010-07-27, 00:06:05,VALID,917.71,VALID,0,VALID,92.411,VALID,0,VALID,19.4298,VALID,263,VALID,1.37969,
2010-07-27, 00:07:05,VALID,917.727,VALID,0,VALID,92.6016,VALID,0,VALID,19.4103,VALID,263,VALID,1.0582,
2010-07-27, 00:08:05,VALID,917.728,VALID,0,VALID,92.9828,VALID,0,VALID,19.3713,VALID,27,VALID,1.78437,
2010-07-27, 00:09:05,VALID,917.69,VALID,0,VALID,93.2115,VALID,0,VALID,19.3713,VALID,12,VALID,1.78242,
2010-07-27, 00:10:05,VALID,917.65,VALID,0,VALID,93.4021,VALID,0,VALID,19.3908,VALID,34,VALID,2.42266,
2010-07-27, 00:11:05,VALID,917.654,VALID,0,VALID,93.3335,VALID,0,VALID,19.4103,VALID,26,VALID,2.26133,
2010-07-27, 00:12:05,VALID,917.618,VALID,0,VALID,93.242,VALID,0,VALID,19.4493,VALID,20,VALID,2.26914,
2010-07-27, 00:13:05,VALID,917.639,VALID,0,VALID,93.1581,VALID,0,VALID,19.4883,VALID,11,VALID,1.77109,
2010-07-27, 00:14:05,VALID,917.664,VALID,0,VALID,92.9828,VALID,0,VALID,19.5273,VALID,12,VALID,2.04297,
2010-07-27, 00:15:05,VALID,917.63,VALID,0,VALID,93.1353,VALID,0,VALID,19.6053,VALID,24,VALID,1.89023,
2010-07-27, 00:16:05,VALID,917.655,VALID,0,VALID,93.2344,VALID,0,VALID,19.6443,VALID,22,VALID,1.77461,
2010-07-27, 00:17:05,VALID,917.639,VALID,0,VALID,93.3945,VALID,0,VALID,19.6428,VALID,14,VALID,1.39961,
2010-07-27, 00:18:05,VALID,917.662,VALID,0,VALID,93.4936,VALID,0.107441,VALID,19.6818,VALID,24,VALID,1.67031,
2010-07-27, 00:19:05,VALID,917.662,VALID,0,VALID,93.5317,VALID,0.107441,VALID,19.7223,VALID,24,VALID,1.69648,
2010-07-27, 00:20:05,VALID,917.657,VALID,0,VALID,93.5698,VALID,0.107441,VALID,19.7208,VALID,45,VALID,1.37344,
2010-07-27, 00:21:05,VALID,917.707,VALID,0,VALID,93.6308,VALID,0.107441,VALID,19.7403,VALID,21,VALID,1.19375,
2010-07-27, 00:22:05,VALID,917.713,VALID,0,VALID,93.6765,VALID,0,VALID,19.7598,VALID,21,VALID,1.175,
2010-07-27, 00:23:05,VALID,917.723,VALID,0,VALID,93.6232,VALID,0.107441,VALID,19.7598,VALID,21,VALID,0.358594,
2010-07-27, 00:24:05,VALID,917.748,VALID,0,VALID,93.6232,VALID,0.107441,VALID,19.7598,VALID,21,VALID,0.634375,
2010-07-27, 00:25:05,VALID,917.725,VALID,0,VALID,93.7451,VALID,0,VALID,19.7793,VALID,39,VALID,1.21563,
2010-07-27, 00:26:05,VALID,917.761,VALID,0,VALID,93.6079,VALID,0.107441,VALID,19.7598,VALID,39,VALID,0.0769531,
2010-07-27, 00:27:05,VALID,917.744,VALID,0,VALID,93.6384,VALID,0.107441,VALID,19.7598,VALID,39,VALID,0.0726563,
2010-07-27, 00:28:05,VALID,917.734,VALID,0,VALID,93.5774,VALID,0.107441,VALID,19.7598,VALID,39,VALID,0.314453,
2010-07-27, 00:29:05,VALID,917.729,VALID,0,VALID,93.3792,VALID,0.107441,VALID,19.7403,VALID,39,VALID,0.484766,
2010-07-27, 00:30:05,VALID,917.735,VALID,0,VALID,93.5164,VALID,0.107441,VALID,19.7208,VALID,36,VALID,0.553516,
2010-07-27, 00:31:05,VALID,917.713,VALID,0,VALID,93.9586,VALID,0.107441,VALID,19.7403,VALID,321,VALID,0.915234,
2010-07-27, 00:32:05,VALID,917.716,VALID,0,VALID,93.9891,VALID,0.107441,VALID,19.7598,VALID,321,VALID,0.280859,
2010-07-27, 00:33:05,VALID,917.76,VALID,0,VALID,94.0501,VALID,0.107441,VALID,19.7793,VALID,321,VALID,0.814844,
2010-07-27, 00:34:05,VALID,917.718,VALID,0,VALID,94.1416,VALID,0.107441,VALID,19.7793,VALID,321,VALID,0.573047,
2010-07-27, 00:35:05,VALID,917.7,VALID,0,VALID,93.8824,VALID,0.107441,VALID,19.7598,VALID,321,VALID,0.307813,
2010-07-27, 00:36:05,VALID,917.686,VALID,0,VALID,93.9967,VALID,0.107441,VALID,19.7793,VALID,321,VALID,0.934766,
2010-07-27, 00:37:05,VALID,917.664,VALID,0,VALID,94.0196,VALID,0.107441,VALID,19.7988,VALID,321,VALID,0.782422,
2010-07-27, 00:38:05,VALID,917.641,VALID,0,VALID,94.0272,VALID,0.107441,VALID,19.7793,VALID,321,VALID,0.320703,
2010-07-27, 00:39:05,VALID,917.662,VALID,0,VALID,94.0043,VALID,0,VALID,19.7598,VALID,321,VALID,0.135156,
2010-07-27, 00:40:05,VALID,917.646,VALID,0,VALID,94.0653,VALID,0,VALID,19.7403,VALID,321,VALID,0.351953,
2010-07-27, 00:41:05,VALID,917.66,VALID,0,VALID,94.0348,VALID,0.107441,VALID,19.7598,VALID,321,VALID,0.0890625,
2010-07-27, 00:42:05,VALID,917.64,VALID,0,VALID,94.1568,VALID,0.107441,VALID,19.7598,VALID,321,VALID,0.649609,
2010-07-27, 00:43:05,VALID,917.638,VALID,0,VALID,94.1873,VALID,0.107441,VALID,19.7403,VALID,321,VALID,0.754687,
2010-07-27, 00:44:05,VALID,917.648,VALID,0,VALID,94.3626,VALID,0.107441,VALID,19.7403,VALID,34,VALID,1.275,
2010-07-27, 00:45:05,VALID,917.666,VALID,0,VALID,94.416,VALID,0.107441,VALID,19.7208,VALID,31,VALID,0.905078,
2010-07-27, 00:46:05,VALID,917.618,VALID,0,VALID,94.5151,VALID,0.107441,VALID,19.7013,VALID,31,VALID,1.28594,
2010-07-27, 00:47:05,VALID,917.644,VALID,0,VALID,94.5685,VALID,0,VALID,19.7013,VALID,31,VALID,1.27227,
2010-07-27, 00:48:05,VALID,917.621,VALID,0,VALID,94.66,VALID,0,VALID,19.7013,VALID,31,VALID,1.09453,
2010-07-27, 00:49:05,VALID,917.606,VALID,0,VALID,94.8658,VALID,0,VALID,19.7013,VALID,359,VALID,1.38906,
2010-07-27, 00:50:05,VALID,917.606,VALID,0,VALID,95.0411,VALID,0,VALID,19.7013,VALID,26,VALID,1.11953,
2010-07-27, 00:51:05,VALID,917.558,VALID,0,VALID,95.1631,VALID,0.107441,VALID,19.7403,VALID,25,VALID,1.07031,
2010-07-27, 00:52:05,VALID,917.56,VALID,0,VALID,95.2622,VALID,0,VALID,19.7403,VALID,1,VALID,1.19922,
2010-07-27, 00:53:05,VALID,917.603,VALID,0,VALID,95.3689,VALID,0,VALID,19.7598,VALID,325,VALID,0.307813,
2010-07-27, 00:54:05,VALID,917.582,VALID,0,VALID,95.3537,VALID,0,VALID,19.7808,VALID,325,VALID,0.257031,
2010-07-27, 00:55:05,VALID,917.592,VALID,0,VALID,95.3613,VALID,0,VALID,19.7598,VALID,325,VALID,0.572266,
2010-07-27, 00:56:05,VALID,917.599,VALID,0,VALID,95.3308,VALID,0,VALID,19.7598,VALID,325,VALID,0.505859,
2010-07-27, 00:57:05,VALID,917.596,VALID,0,VALID,95.3232,VALID,0,VALID,19.7598,VALID,325,VALID,0.119531,
2010-07-27, 00:58:04,VALID,917.571,VALID,0,VALID,95.3156,VALID,0.107441,VALID,19.7793,VALID,324,VALID,1.07852,
2010-07-27, 00:59:04,VALID,917.553,VALID,0,VALID,95.2393,VALID,0,VALID,19.7418,VALID,324,VALID,1.44727,
2010-07-27, 01:00:04,VALID,917.535,VALID,0,VALID,95.3232,VALID,0,VALID,19.7208,VALID,327,VALID,1.75312,
2010-07-27, 01:01:04,VALID,917.542,VALID,0,VALID,95.3918,VALID,0,VALID,19.6818,VALID,24,VALID,1.71484,
2010-07-27, 01:02:04,VALID,917.529,VALID,0,VALID,95.468,VALID,0,VALID,19.6818,VALID,24,VALID,1.86289,
2010-07-27, 01:03:04,VALID,917.519,VALID,0,VALID,95.5367,VALID,0,VALID,19.6623,VALID,24,VALID,1.88086,
2010-07-27, 01:04:04,VALID,917.532,VALID,0,VALID,95.5595,VALID,0,VALID,19.6428,VALID,23,VALID,1.53672,
2010-07-27, 01:05:04,VALID,917.549,VALID,0,VALID,95.6586,VALID,0.107441,VALID,19.6623,VALID,21,VALID,1.14492,
2010-07-27, 01:06:04,VALID,917.575,VALID,0,VALID,95.7577,VALID,0.107441,VALID,19.6623,VALID,21,VALID,0.696875,
2010-07-27, 01:07:04,VALID,917.575,VALID,0,VALID,95.7882,VALID,0,VALID,19.6818,VALID,18,VALID,1.35859,
2010-07-27, 01:08:04,VALID,917.547,VALID,0,VALID,95.8492,VALID,0,VALID,19.6623,VALID,14,VALID,1.10195,
2010-07-27, 01:09:04,VALID,917.581,VALID,0,VALID,95.8797,VALID,0,VALID,19.6818,VALID,14,VALID,1.30938,
2010-07-27, 01:10:04,VALID,917.57,VALID,0,VALID,95.8873,VALID,0.107441,VALID,19.6818,VALID,14,VALID,1.3875,
2010-07-27, 01:11:04,VALID,917.595,VALID,0,VALID,95.9331,VALID,0,VALID,19.6818,VALID,14,VALID,0.869531,
2010-07-27, 01:12:04,VALID,917.573,VALID,0,VALID,95.9254,VALID,0,VALID,19.7223,VALID,14,VALID,1.27578,
2010-07-27, 01:13:04,VALID,917.582,VALID,0,VALID,95.9483,VALID,0,VALID,19.7013,VALID,14,VALID,1.26094,
2010-07-27, 01:14:04,VALID,917.578,VALID,0,VALID,95.9483,VALID,0,VALID,19.7013,VALID,14,VALID,1.11523,
2010-07-27, 01:15:04,VALID,917.582,VALID,0,VALID,95.9331,VALID,0,VALID,19.7013,VALID,14,VALID,1.11563,
2010-07-27, 01:16:04,VALID,917.549,VALID,0,VALID,95.9483,VALID,0,VALID,19.6818,VALID,14,VALID,1.34766,
2010-07-27, 01:17:04,VALID,917.57,VALID,0,VALID,95.9788,VALID,0,VALID,19.7208,VALID,14,VALID,1.28906,
2010-07-27, 01:18:04,VALID,917.606,VALID,0,VALID,95.9941,VALID,0,VALID,19.7013,VALID,14,VALID,1.23828,
2010-07-27, 01:19:04,VALID,917.587,VALID,0,VALID,95.9864,VALID,0,VALID,19.7208,VALID,14,VALID,1.06602,
2010-07-27, 01:20:04,VALID,917.584,VALID,0,VALID,95.9636,VALID,0,VALID,19.6998,VALID,13,VALID,1.17539,
2010-07-27, 01:21:04,VALID,917.594,VALID,0,VALID,95.9407,VALID,0,VALID,19.7013,VALID,13,VALID,1.00937,
2010-07-27, 01:22:04,VALID,917.567,VALID,0,VALID,95.8873,VALID,0,VALID,19.6803,VALID,13,VALID,1.21992,
2010-07-27, 01:23:04,VALID,917.563,VALID,0,VALID,95.9026,VALID,0,VALID,19.7013,VALID,13,VALID,1.21406,
2010-07-27, 01:24:04,VALID,917.566,VALID,0,VALID,95.8797,VALID,0,VALID,19.7013,VALID,13,VALID,1.49297,
2010-07-27, 01:25:04,VALID,917.52,VALID,0,VALID,95.9254,VALID,0,VALID,19.7013,VALID,13,VALID,1.5957,
2010-07-27, 01:26:04,VALID,917.516,VALID,0,VALID,95.9102,VALID,0,VALID,19.7013,VALID,13,VALID,1.72656,
2010-07-27, 01:27:04,VALID,917.524,VALID,0,VALID,95.9102,VALID,0,VALID,19.7013,VALID,13,VALID,1.6918,
2010-07-27, 01:28:04,VALID,917.516,VALID,0,VALID,95.9026,VALID,0.107441,VALID,19.7013,VALID,13,VALID,1.52188,
2010-07-27, 01:29:04,VALID,917.505,VALID,0,VALID,95.9331,VALID,0,VALID,19.6803,VALID,13,VALID,1.46719,
2010-07-27, 01:30:04,VALID,917.497,VALID,0,VALID,95.8645,VALID,0.107441,VALID,19.6413,VALID,13,VALID,1.42148,
2010-07-27, 01:31:04,VALID,917.475,VALID,0,VALID,95.9254,VALID,0,VALID,19.6428,VALID,12,VALID,0.891016,
2010-07-27, 01:32:04,VALID,917.481,VALID,0,VALID,95.9941,VALID,0,VALID,19.6233,VALID,12,VALID,1.29922,
2010-07-27, 01:33:04,VALID,917.506,VALID,0,VALID,96.0398,VALID,0,VALID,19.6443,VALID,10,VALID,1.05586,
2010-07-27, 01:34:04,VALID,917.508,VALID,0,VALID,96.0627,VALID,0,VALID,19.6233,VALID,10,VALID,0.930469,
2010-07-27, 01:35:04,VALID,917.52,VALID,0,VALID,96.1008,VALID,0,VALID,19.6638,VALID,10,VALID,0.580078,
2010-07-27, 01:36:04,VALID,917.509,VALID,0,VALID,96.0245,VALID,0,VALID,19.6443,VALID,10,VALID,1.375,
2010-07-27, 01:37:04,VALID,917.488,VALID,0,VALID,96.0322,VALID,0,VALID,19.6428,VALID,26,VALID,1.50586,
2010-07-27, 01:38:04,VALID,917.53,VALID,0,VALID,95.9941,VALID,0,VALID,19.6233,VALID,325,VALID,0.904688,
2010-07-27, 01:39:04,VALID,917.536,VALID,0,VALID,95.9559,VALID,0,VALID,19.6443,VALID,347,VALID,1.37695,
2010-07-27, 01:40:04,VALID,917.482,VALID,0,VALID,95.9102,VALID,0,VALID,19.6038,VALID,344,VALID,0.930469,
2010-07-27, 01:41:04,VALID,917.502,VALID,0,VALID,95.895,VALID,0,VALID,19.6233,VALID,344,VALID,0.947656,
2010-07-27, 01:42:04,VALID,917.503,VALID,0,VALID,95.8797,VALID,0,VALID,19.6443,VALID,344,VALID,0.845312,
2010-07-27, 01:43:04,VALID,917.512,VALID,0,VALID,95.8645,VALID,0,VALID,19.6443,VALID,344,VALID,0.821094,
2010-07-27, 01:44:04,VALID,917.47,VALID,0,VALID,95.895,VALID,0,VALID,19.6428,VALID,344,VALID,0.224609,
2010-07-27, 01:45:04,VALID,917.498,VALID,0,VALID,95.8721,VALID,0,VALID,19.6443,VALID,344,VALID,0.421094,
2010-07-27, 01:46:04,VALID,917.494,VALID,0,VALID,95.8492,VALID,0,VALID,19.6443,VALID,344,VALID,0.925391,
2010-07-27, 01:47:04,VALID,917.468,VALID,0,VALID,95.8568,VALID,0.107441,VALID,19.6233,VALID,344,VALID,0.869922,
2010-07-27, 01:48:04,VALID,917.453,VALID,0,VALID,95.895,VALID,0.107441,VALID,19.6038,VALID,344,VALID,1.26172,
2010-07-27, 01:49:04,VALID,917.426,VALID,0,VALID,95.9178,VALID,0,VALID,19.6038,VALID,20,VALID,1.30039,
2010-07-27, 01:50:04,VALID,917.393,VALID,0,VALID,96.0017,VALID,0.107441,VALID,19.5633,VALID,25,VALID,1.20742,
2010-07-27, 01:51:04,VALID,917.39,VALID,0,VALID,96.0474,VALID,0,VALID,19.5648,VALID,27,VALID,1.05781,
2010-07-27, 01:52:04,VALID,917.395,VALID,0,VALID,96.1008,VALID,0,VALID,19.5648,VALID,27,VALID,1.15313,
2010-07-27, 01:53:04,VALID,917.384,VALID,0,VALID,96.0932,VALID,0,VALID,19.5648,VALID,27,VALID,1.28672,
2010-07-27, 01:54:04,VALID,917.408,VALID,0,VALID,96.1465,VALID,0.107441,VALID,19.5648,VALID,27,VALID,1.22422,
2010-07-27, 01:55:04,VALID,917.352,VALID,0,VALID,96.1465,VALID,0,VALID,19.5648,VALID,16,VALID,1.26992,
2010-07-27, 01:56:04,VALID,917.399,VALID,0,VALID,96.1694,VALID,0,VALID,19.5648,VALID,16,VALID,1.32344,
2010-07-27, 01:57:04,VALID,917.386,VALID,0,VALID,96.1846,VALID,0,VALID,19.6053,VALID,16,VALID,0.945313,
2010-07-27, 01:58:04,VALID,917.376,VALID,0,VALID,96.1694,VALID,0,VALID,19.5663,VALID,16,VALID,1.53047,
2010-07-27, 01:59:04,VALID,917.376,VALID,0,VALID,96.2075,VALID,0,VALID,19.5858,VALID,16,VALID,0.641406,
2010-07-27, 02:00:04,VALID,917.361,VALID,0,VALID,96.2151,VALID,0,VALID,19.5843,VALID,16,VALID,0.362109,
2010-07-27, 02:01:04,VALID,917.383,VALID,0,VALID,96.1618,VALID,0,VALID,19.5648,VALID,16,VALID,0.468359,
2010-07-27, 02:02:04,VALID,917.329,VALID,0,VALID,96.1008,VALID,0.107441,VALID,19.5663,VALID,16,VALID,0.617188,
2010-07-27, 02:03:04,VALID,917.352,VALID,0,VALID,96.1694,VALID,0,VALID,19.5453,VALID,16,VALID,0.317969,
2010-07-27, 02:04:04,VALID,917.379,VALID,0,VALID,96.2075,VALID,0,VALID,19.5453,VALID,16,VALID,0.283984,
2010-07-27, 02:05:04,VALID,917.354,VALID,0,VALID,96.1999,VALID,0,VALID,19.5663,VALID,16,VALID,0.55,
2010-07-27, 02:06:04,VALID,917.345,VALID,0,VALID,96.1618,VALID,0.107441,VALID,19.5453,VALID,16,VALID,0.246094,
2010-07-27, 02:07:04,VALID,917.345,VALID,0,VALID,96.1846,VALID,0,VALID,19.5453,VALID,16,VALID,0.0046875,
2010-07-27, 02:08:04,VALID,917.329,VALID,0,VALID,96.1618,VALID,0,VALID,19.5243,VALID,16,VALID,0,
2010-07-27, 02:09:04,VALID,917.334,VALID,0,VALID,96.1313,VALID,0,VALID,19.5453,VALID,16,VALID,0.776563,
2010-07-27, 02:10:04,VALID,917.333,VALID,0,VALID,96.1008,VALID,0,VALID,19.5258,VALID,16,VALID,0.499219,
2010-07-27, 02:11:04,VALID,917.314,VALID,0,VALID,96.1236,VALID,0,VALID,19.5453,VALID,16,VALID,0.112891,
2010-07-27, 02:12:04,VALID,917.315,VALID,0,VALID,96.055,VALID,0,VALID,19.5453,VALID,49,VALID,0.833203,
2010-07-27, 02:13:04,VALID,917.31,VALID,0,VALID,96.1084,VALID,0,VALID,19.5858,VALID,45,VALID,1.38828,
2010-07-27, 02:14:04,VALID,917.305,VALID,0,VALID,96.1084,VALID,0,VALID,19.5843,VALID,8,VALID,0.950781,
2010-07-27, 02:15:04,VALID,917.313,VALID,0,VALID,96.0398,VALID,0,VALID,19.5648,VALID,8,VALID,0.686328,
2010-07-27, 02:16:04,VALID,917.3,VALID,0,VALID,96.1008,VALID,0,VALID,19.5858,VALID,8,VALID,0.817578,
2010-07-27, 02:17:04,VALID,917.313,VALID,0,VALID,96.1236,VALID,0,VALID,19.5843,VALID,8,VALID,1.04141,
2010-07-27, 02:18:04,VALID,917.32,VALID,0,VALID,96.1465,VALID,0,VALID,19.6038,VALID,8,VALID,0.873438,
2010-07-27, 02:19:04,VALID,917.28,VALID,0,VALID,96.0398,VALID,0.107441,VALID,19.6038,VALID,8,VALID,1.20625,
2010-07-27, 02:20:04,VALID,917.296,VALID,0,VALID,96.0169,VALID,0.107441,VALID,19.6038,VALID,8,VALID,1.09687,
2010-07-27, 02:21:04,VALID,917.24,VALID,0,VALID,95.9483,VALID,0,VALID,19.6038,VALID,8,VALID,1.30664,
2010-07-27, 02:22:04,VALID,917.254,VALID,0,VALID,95.9559,VALID,0,VALID,19.6038,VALID,8,VALID,1.18633,
2010-07-27, 02:23:04,VALID,917.226,VALID,0,VALID,95.9407,VALID,0,VALID,19.6233,VALID,8,VALID,0.848437,
2010-07-27, 02:24:04,VALID,917.233,VALID,0,VALID,95.8797,VALID,0.107441,VALID,19.6233,VALID,8,VALID,1.26563,
2010-07-27, 02:25:04,VALID,917.22,VALID,0,VALID,95.8111,VALID,0,VALID,19.6428,VALID,8,VALID,0.736719,
2010-07-27, 02:26:04,VALID,917.212,VALID,0,VALID,95.7577,VALID,0,VALID,19.6623,VALID,8,VALID,0.935938,
2010-07-27, 02:27:04,VALID,917.211,VALID,0,VALID,95.6357,VALID,0.107441,VALID,19.6818,VALID,8,VALID,0.771875,
2010-07-27, 02:28:04,VALID,917.209,VALID,0,VALID,95.5748,VALID,0,VALID,19.7013,VALID,8,VALID,1.07109,
2010-07-27, 02:29:04,VALID,917.243,VALID,0,VALID,95.4985,VALID,0.107441,VALID,19.7013,VALID,8,VALID,0.564844,
2010-07-27, 02:30:04,VALID,917.238,VALID,0,VALID,95.3918,VALID,0.107441,VALID,19.7013,VALID,8,VALID,0,
2010-07-27, 02:31:04,VALID,917.241,VALID,0,VALID,95.2775,VALID,0.107441,VALID,19.6818,VALID,8,VALID,0.0703125,
2010-07-27, 02:32:04,VALID,917.279,VALID,0,VALID,95.2546,VALID,0,VALID,19.6818,VALID,8,VALID,0.384766,
2010-07-27, 02:33:04,VALID,917.3,VALID,0,VALID,95.247,VALID,0.107441,VALID,19.6818,VALID,8,VALID,0.421094,
2010-07-27, 02:34:04,VALID,917.269,VALID,0,VALID,95.2317,VALID,0,VALID,19.6818,VALID,8,VALID,0.373828,
2010-07-27, 02:35:04,VALID,917.235,VALID,0,VALID,95.2851,VALID,0.107441,VALID,19.6818,VALID,8,VALID,0.0605469,
2010-07-27, 02:36:04,VALID,917.245,VALID,0,VALID,95.2851,VALID,0,VALID,19.6623,VALID,8,VALID,0.244141,
2010-07-27, 02:37:04,VALID,917.229,VALID,0,VALID,95.2775,VALID,0,VALID,19.6623,VALID,8,VALID,0.0367187,
2010-07-27, 02:38:04,VALID,917.193,VALID,0,VALID,95.2927,VALID,0,VALID,19.6623,VALID,8,VALID,0,
2010-07-27, 02:39:04,VALID,917.209,VALID,0,VALID,95.3079,VALID,0,VALID,19.6818,VALID,8,VALID,0,
2010-07-27, 02:40:04,VALID,917.184,VALID,0,VALID,95.2851,VALID,0,VALID,19.6818,VALID,8,VALID,0,
2010-07-27, 02:41:04,VALID,917.188,VALID,0,VALID,95.2241,VALID,0,VALID,19.6623,VALID,8,VALID,0.117188,
2010-07-27, 02:42:04,VALID,917.203,VALID,0,VALID,95.2241,VALID,0,VALID,19.6623,VALID,8,VALID,0,
2010-07-27, 02:43:04,VALID,917.179,VALID,0,VALID,95.2088,VALID,0.107441,VALID,19.6623,VALID,8,VALID,0,
2010-07-27, 02:44:04,VALID,917.157,VALID,0,VALID,95.1631,VALID,0,VALID,19.6233,VALID,8,VALID,0,
2010-07-27, 02:45:04,VALID,917.147,VALID,0,VALID,95.1707,VALID,0,VALID,19.6233,VALID,8,VALID,0.589453,
2010-07-27, 02:46:04,VALID,917.127,VALID,0,VALID,95.247,VALID,0.107441,VALID,19.6038,VALID,8,VALID,0.532031,
2010-07-27, 02:47:04,VALID,917.116,VALID,0,VALID,95.2698,VALID,0,VALID,19.5843,VALID,8,VALID,0.310937,
2010-07-27, 02:48:04,VALID,917.132,VALID,0,VALID,95.3537,VALID,0.107441,VALID,19.5843,VALID,8,VALID,0,
2010-07-27, 02:49:04,VALID,917.122,VALID,0,VALID,95.3308,VALID,0,VALID,19.5648,VALID,8,VALID,0,
2010-07-27, 02:50:04,VALID,917.149,VALID,0,VALID,95.3232,VALID,0.107441,VALID,19.5843,VALID,8,VALID,0,
2010-07-27, 02:51:04,VALID,917.165,VALID,0,VALID,95.3842,VALID,0.107441,VALID,19.5648,VALID,8,VALID,0,
2010-07-27, 02:52:04,VALID,917.149,VALID,0,VALID,95.3384,VALID,0.107441,VALID,19.5843,VALID,8,VALID,0.0300781,
2010-07-27, 02:53:04,VALID,917.145,VALID,0,VALID,95.2165,VALID,0.107441,VALID,19.5648,VALID,8,VALID,0.555078,
2010-07-27, 02:54:04,VALID,917.13,VALID,0,VALID,95.1631,VALID,0,VALID,19.5453,VALID,8,VALID,0.462891,
2010-07-27, 02:55:04,VALID,917.097,VALID,0,VALID,95.1555,VALID,0.107441,VALID,19.5453,VALID,8,VALID,0.261328,
2010-07-27, 02:56:04,VALID,917.126,VALID,0,VALID,95.1326,VALID,0,VALID,19.5453,VALID,8,VALID,0.137891,
2010-07-27, 02:57:04,VALID,917.103,VALID,0,VALID,95.0945,VALID,0,VALID,19.5468,VALID,8,VALID,0,
2010-07-27, 02:58:04,VALID,917.132,VALID,0,VALID,95.1479,VALID,0,VALID,19.5258,VALID,8,VALID,0,
2010-07-27, 02:59:04,VALID,917.111,VALID,0,VALID,95.2165,VALID,0,VALID,19.5258,VALID,8,VALID,0,
2010-07-27, 03:00:04,VALID,917.133,VALID,0,VALID,95.3003,VALID,0,VALID,19.5063,VALID,8,VALID,0.0351563,
2010-07-27, 03:01:04,VALID,917.116,VALID,0,VALID,95.3461,VALID,0,VALID,19.5258,VALID,8,VALID,0.169922,
2010-07-27, 03:02:04,VALID,917.084,VALID,0,VALID,95.3308,VALID,0,VALID,19.5258,VALID,8,VALID,0.357031,
2010-07-27, 03:03:04,VALID,917.073,VALID,0,VALID,95.2851,VALID,0.107441,VALID,19.5258,VALID,8,VALID,0,
2010-07-27, 03:04:04,VALID,917.067,VALID,0,VALID,95.2393,VALID,0,VALID,19.5063,VALID,8,VALID,0,
2010-07-27, 03:05:04,VALID,917.047,VALID,0,VALID,95.2165,VALID,0,VALID,19.5063,VALID,8,VALID,0,
2010-07-27, 03:06:04,VALID,917.062,VALID,0,VALID,95.2241,VALID,0,VALID,19.4868,VALID,8,VALID,0,
2010-07-27, 03:07:04,VALID,917.037,VALID,0,VALID,95.2393,VALID,0,VALID,19.4868,VALID,8,VALID,0.189453,
2010-07-27, 03:08:04,VALID,917.013,VALID,0,VALID,95.3003,VALID,0.107441,VALID,19.4868,VALID,8,VALID,0.341016,
2010-07-27, 03:09:04,VALID,916.986,VALID,0,VALID,95.3537,VALID,0,VALID,19.5063,VALID,8,VALID,0.135937,
2010-07-27, 03:10:04,VALID,916.954,VALID,0,VALID,95.3384,VALID,0,VALID,19.5273,VALID,8,VALID,0.208203,
2010-07-27, 03:11:04,VALID,916.975,VALID,0,VALID,95.3461,VALID,0.107441,VALID,19.5258,VALID,8,VALID,0.434766,
2010-07-27, 03:12:04,VALID,916.943,VALID,0,VALID,95.2622,VALID,0,VALID,19.5453,VALID,8,VALID,0.330469,
2010-07-27, 03:13:04,VALID,916.912,VALID,0,VALID,95.0488,VALID,0.107441,VALID,19.5453,VALID,8,VALID,0.845703,
2010-07-27, 03:14:04,VALID,916.862,VALID,0,VALID,94.9954,VALID,0.107441,VALID,19.5453,VALID,8,VALID,0.522266,
2010-07-27, 03:15:04,VALID,916.848,VALID,0,VALID,94.9801,VALID,0.107441,VALID,19.5063,VALID,8,VALID,0.298828,
2010-07-27, 03:16:04,VALID,916.856,VALID,0,VALID,95.0335,VALID,0.107441,VALID,19.5063,VALID,8,VALID,0.272656,
2010-07-27, 03:17:04,VALID,916.828,VALID,0,VALID,95.0945,VALID,0,VALID,19.4883,VALID,8,VALID,0.151562,
2010-07-27, 03:18:04,VALID,916.811,VALID,0,VALID,95.1479,VALID,0,VALID,19.4883,VALID,8,VALID,0,
2010-07-27, 03:19:04,VALID,916.774,VALID,0,VALID,95.2393,VALID,0,VALID,19.4883,VALID,8,VALID,0.198047,
2010-07-27, 03:20:04,VALID,916.764,VALID,0,VALID,95.3308,VALID,0,VALID,19.4883,VALID,8,VALID,0.257031,
2010-07-27, 03:21:04,VALID,916.777,VALID,0,VALID,95.3308,VALID,0,VALID,19.5078,VALID,8,VALID,0.221094,
2010-07-27, 03:22:04,VALID,916.797,VALID,0,VALID,95.2927,VALID,0,VALID,19.5078,VALID,8,VALID,0.200391,
2010-07-27, 03:23:04,VALID,916.805,VALID,0,VALID,95.3156,VALID,0,VALID,19.5078,VALID,8,VALID,0.757813,
2010-07-27, 03:24:04,VALID,916.784,VALID,0,VALID,95.2698,VALID,0,VALID,19.5468,VALID,8,VALID,0.616016,
2010-07-27, 03:25:04,VALID,916.783,VALID,0,VALID,95.1936,VALID,0,VALID,19.5273,VALID,8,VALID,0.666016,
2010-07-27, 03:26:04,VALID,916.777,VALID,0,VALID,95.1402,VALID,0,VALID,19.5468,VALID,8,VALID,0.452344,
2010-07-27, 03:27:04,VALID,916.793,VALID,0,VALID,95.1097,VALID,0,VALID,19.5468,VALID,8,VALID,0.544141,
2010-07-27, 03:28:04,VALID,916.788,VALID,0,VALID,95.064,VALID,0,VALID,19.5468,VALID,8,VALID,0.640625,
2010-07-27, 03:29:04,VALID,916.796,VALID,0,VALID,95.0869,VALID,0,VALID,19.5468,VALID,8,VALID,0.771875,
2010-07-27, 03:30:04,VALID,916.787,VALID,0,VALID,95.0792,VALID,0,VALID,19.5273,VALID,8,VALID,0.877344,
2010-07-27, 03:31:04,VALID,916.809,VALID,0,VALID,95.064,VALID,0,VALID,19.5468,VALID,8,VALID,0.603125,
2010-07-27, 03:32:04,VALID,916.827,VALID,0,VALID,95.1021,VALID,0.107441,VALID,19.5258,VALID,8,VALID,0.627344,
2010-07-27, 03:33:04,VALID,916.801,VALID,0,VALID,95.1479,VALID,0,VALID,19.5453,VALID,8,VALID,0.46875,
2010-07-27, 03:34:04,VALID,916.807,VALID,0,VALID,95.1555,VALID,0,VALID,19.5063,VALID,8,VALID,0.420312,
2010-07-27, 03:35:04,VALID,916.861,VALID,0,VALID,95.2698,VALID,0,VALID,19.5063,VALID,319,VALID,1.04883,
2010-07-27, 03:36:04,VALID,916.853,VALID,0,VALID,95.2927,VALID,0,VALID,19.5258,VALID,316,VALID,0.545313,
2010-07-27, 03:37:04,VALID,916.829,VALID,0,VALID,95.3613,VALID,0.107441,VALID,19.5048,VALID,316,VALID,0.534375,
2010-07-27, 03:38:04,VALID,916.838,VALID,0,VALID,95.3232,VALID,0,VALID,19.5258,VALID,316,VALID,0.508203,
2010-07-27, 03:39:04,VALID,916.879,VALID,0,VALID,95.3613,VALID,0,VALID,19.5063,VALID,316,VALID,0.763672,
2010-07-27, 03:40:04,VALID,916.882,VALID,0,VALID,95.3918,VALID,0.107441,VALID,19.5063,VALID,316,VALID,0.239453,
2010-07-27, 03:41:04,VALID,916.865,VALID,0,VALID,95.4528,VALID,0.107441,VALID,19.5258,VALID,316,VALID,0.678906,
2010-07-27, 03:42:04,VALID,916.891,VALID,0,VALID,95.4833,VALID,0.107441,VALID,19.5258,VALID,316,VALID,0.582422,
2010-07-27, 03:43:04,VALID,916.875,VALID,0,VALID,95.4528,VALID,0.107441,VALID,19.5468,VALID,316,VALID,0.749609,
2010-07-27, 03:44:04,VALID,916.898,VALID,0,VALID,95.4604,VALID,0.107441,VALID,19.5453,VALID,316,VALID,1.07383,